Aktuell
News
Messwerte
Diagramme
Archiv
Vorhersage
Regen
Wettergefahren

Astro & Geo
Gesundheit
Pegel
Gästebuch
Kontakt
Impressum
Datenschutz
App

Wolkig bei 22.3 °C – Luftdruck: 1014.2 hPa – Wind: NO 4.7 km/h
Messwerte von 00:24 Uhr; Warnsymbol: Datenbasis DWD; Wetterzustand powered by OpenWeatherMap, CC BY-SA 4.0
Übersicht
Heute
Gestern
Vor 1 Jahr
Info
Vor 1 Jahr
 
Messwerte von Samstag, 10.08.2019
Symbol
Zeitpunkt
Wetter-
zustand
Zeitpunkt
Temperatur
Zeitpunkt
Luftfeuchte
Taupunkt
Zeitpunkt
Luftdruck
Zeitpunkt
Wind
Zeitpunkt
Windböen
Max 15 Min.
Wind-
richtung
Zeitpunkt
Regen
Summe 1 h
Regenrate
Max 15 Min.
UV-Index
Max 15 Min.
Pegel Köln
Zeitpunkt
Warnlage
Zeitpunkt
00:15 Wolkig3 19.7 °C 94 %
18.7 °C
1007.6 hPa 3.2 km/h
1 Bft
13.0 km/h
3 Bft
SO -
0.0 mm/h
0.0 238 cm
00:30 Wolkig3 19.5 °C 94 %
18.5 °C
1007.6 hPa 1.4 km/h
1 Bft
7.9 km/h
2 Bft
S -
0.0 mm/h
0.0 239 cm
00:45 Wolkig3 19.3 °C 93 %
18.1 °C
1007.5 hPa 1.4 km/h
1 Bft
11.2 km/h
2 Bft
SO -
0.0 mm/h
0.0 239 cm
01:00 Wolkig3 19.4 °C 92 %
18.1 °C
1007.8 hPa 3.2 km/h
1 Bft
11.2 km/h
2 Bft
S 0.00 mm
0.0 mm/h
0.0 239 cm
01:15 Wolkig3 19.4 °C 90 %
17.7 °C
1007.5 hPa 3.2 km/h
1 Bft
9.7 km/h
2 Bft
SSO -
0.0 mm/h
0.0 239 cm
01:30 Wolkig3 19.2 °C 88 %
17.2 °C
1007.7 hPa 3.2 km/h
1 Bft
14.4 km/h
3 Bft
OSO -
0.0 mm/h
0.0 239 cm
01:45 Wolkig3 19.1 °C 87 %
16.9 °C
1007.7 hPa 1.4 km/h
1 Bft
9.7 km/h
2 Bft
SSW -
0.0 mm/h
0.0 239 cm
02:00 Wolkig3 19.1 °C 87 %
16.9 °C
1007.4 hPa 1.4 km/h
1 Bft
9.7 km/h
2 Bft
SSO 0.00 mm
0.0 mm/h
0.0 240 cm
02:15 Wolkig3 18.9 °C 87 %
16.7 °C
1007.5 hPa 1.4 km/h
1 Bft
6.5 km/h
2 Bft
SO -
0.0 mm/h
0.0 239 cm
02:30 Wolkig3 18.8 °C 88 %
16.8 °C
1007.5 hPa 1.4 km/h
1 Bft
14.4 km/h
3 Bft
SSW -
0.0 mm/h
0.0 239 cm
02:45 Wolkenlos2 18.8 °C 88 %
16.8 °C
1007.5 hPa 1.4 km/h
1 Bft
7.9 km/h
2 Bft
SSW -
0.0 mm/h
0.0 240 cm
03:00 Wolkenlos2 18.7 °C 88 %
16.7 °C
1007.3 hPa 1.4 km/h
1 Bft
9.7 km/h
2 Bft
OSO 0.00 mm
0.0 mm/h
0.0 239 cm
03:15 Wolkenlos2 18.7 °C 88 %
16.7 °C
1007.7 hPa 1.4 km/h
1 Bft
6.5 km/h
2 Bft
WSW -
0.0 mm/h
0.0 240 cm
03:30 Leicht bewölkt3 18.7 °C 88 %
16.7 °C
1007.8 hPa 3.2 km/h
1 Bft
11.2 km/h
2 Bft
SSW -
0.0 mm/h
0.0 241 cm
03:45 Leicht bewölkt3 18.9 °C 87 %
16.7 °C
1007.9 hPa 3.2 km/h
1 Bft
9.7 km/h
2 Bft
ONO -
0.0 mm/h
0.0 241 cm
04:00 Leicht bewölkt3 18.9 °C 87 %
16.7 °C
1007.9 hPa 3.2 km/h
1 Bft
13.0 km/h
3 Bft
S 0.00 mm
0.0 mm/h
0.0 241 cm
04:15 Leicht bewölkt3 18.9 °C 87 %
16.7 °C
1007.9 hPa 3.2 km/h
1 Bft
9.7 km/h
2 Bft
OSO -
0.0 mm/h
0.0 242 cm
04:30 Wolkenlos2 18.7 °C 87 %
16.5 °C
1008.0 hPa 1.4 km/h
1 Bft
13.0 km/h
3 Bft
O -
0.0 mm/h
0.0 242 cm
04:45 Wolkenlos2 18.6 °C 87 %
16.4 °C
1008.1 hPa 3.2 km/h
1 Bft
11.2 km/h
2 Bft
OSO -
0.0 mm/h
0.0 242 cm
05:00 Wolkenlos2 18.4 °C 87 %
16.2 °C
1008.1 hPa 3.2 km/h
1 Bft
11.2 km/h
2 Bft
OSO 0.00 mm
0.0 mm/h
0.0 242 cm
05:15 Wolkenlos2 18.2 °C 87 %
16.0 °C
1008.0 hPa 1.4 km/h
1 Bft
14.4 km/h
3 Bft
SSO -
0.0 mm/h
0.0 243 cm
05:30 Wolkenlos2 18.1 °C 87 %
15.9 °C
1008.2 hPa 1.4 km/h
1 Bft
11.2 km/h
2 Bft
S -
0.0 mm/h
0.0 243 cm
05:45 Wolkenlos2 18.2 °C 85 %
15.6 °C
1008.2 hPa 3.2 km/h
1 Bft
11.2 km/h
2 Bft
SSO -
0.0 mm/h
0.0 244 cm
06:00 Wolkenlos2 18.4 °C 83 %
15.5 °C
1008.5 hPa 3.2 km/h
1 Bft
14.4 km/h
3 Bft
SSW 0.00 mm
0.0 mm/h
0.0 243 cm
06:15 Leicht bewölkt3 18.6 °C 81 %
15.3 °C
1008.7 hPa 4.2 km/h
1 Bft
13.0 km/h
3 Bft
SW -
0.0 mm/h
0.0 243 cm
06:30 Leicht bewölkt3 18.5 °C 81 %
15.2 °C
1008.7 hPa 3.2 km/h
1 Bft
11.2 km/h
2 Bft
SSW -
0.0 mm/h
0.0 244 cm
06:45 Leicht bewölkt3 18.4 °C 80 %
14.9 °C
1008.8 hPa 3.2 km/h
1 Bft
9.7 km/h
2 Bft
SSW -
0.0 mm/h
0.0 243 cm
07:00 Leicht bewölkt3 18.5 °C 80 %
15.0 °C
1008.9 hPa 3.2 km/h
1 Bft
14.4 km/h
3 Bft
SSW 0.00 mm
0.0 mm/h
0.0 244 cm
07:15 Leicht bewölkt3 18.5 °C 80 %
15.0 °C
1009.1 hPa 3.2 km/h
1 Bft
13.0 km/h
3 Bft
S -
0.0 mm/h
0.0 244 cm
07:30 Leicht bewölkt3 18.6 °C 79 %
14.9 °C
1009.3 hPa 1.4 km/h
1 Bft
9.7 km/h
2 Bft
SSO -
0.0 mm/h
0.0 244 cm
07:45 Sonnig2 18.8 °C 79 %
15.1 °C
1009.5 hPa 3.2 km/h
1 Bft
13.0 km/h
3 Bft
SO -
0.0 mm/h
0.0 245 cm
08:00 Leicht bewölkt3 19.1 °C 77 %
15.0 °C
1009.6 hPa 4.7 km/h
1 Bft
17.6 km/h
3 Bft
SSW 0.00 mm
0.0 mm/h
0.0 245 cm
08:15 Leicht bewölkt3 19.3 °C 76 %
15.0 °C
1009.7 hPa 5.8 km/h
2 Bft
17.6 km/h
3 Bft
SSW -
0.0 mm/h
0.8 245 cm
08:30 Sonnig2 19.6 °C 74 %
14.8 °C
1009.8 hPa 7.9 km/h
2 Bft
22.7 km/h
4 Bft
SSW -
0.0 mm/h
0.9 244 cm
08:45 Sonnig2 19.9 °C 73 %
14.9 °C
1009.8 hPa 9.7 km/h
2 Bft
22.7 km/h
4 Bft
SW -
0.0 mm/h
1.0 245 cm
09:00 Leicht bewölkt3 20.2 °C 71 %
14.8 °C
1010.0 hPa 6.9 km/h
2 Bft
20.9 km/h
4 Bft
SW 0.00 mm
0.0 mm/h
1.1 245 cm
09:15 Leicht bewölkt3 20.6 °C 69 %
14.7 °C
1010.0 hPa 11.2 km/h
2 Bft
24.1 km/h
4 Bft
SSW -
0.0 mm/h
1.3 245 cm
09:30 Leicht bewölkt3 20.9 °C 67 %
14.5 °C
1010.1 hPa 9.7 km/h
2 Bft
25.9 km/h
4 Bft
S -
0.0 mm/h
1.4 245 cm
09:45 Leicht bewölkt3 21.2 °C 66 %
14.6 °C
1010.3 hPa 11.2 km/h
2 Bft
24.1 km/h
4 Bft
S -
0.0 mm/h
2.4 245 cm
10:00 Wolkig3 21.3 °C 65 %
14.4 °C
1010.4 hPa 14.4 km/h
3 Bft
27.4 km/h
4 Bft
NW 0.00 mm
0.0 mm/h
2.9 245 cm
10:15 Stark bewölkt3 21.5 °C 64 %
14.4 °C
1010.5 hPa 10.1 km/h
2 Bft
25.9 km/h
4 Bft
S -
0.0 mm/h
3.2 244 cm
10:30 Wolkig3 21.2 °C 63 %
13.9 °C
1010.7 hPa 11.2 km/h
2 Bft
27.4 km/h
4 Bft
S -
0.0 mm/h
1.5 244 cm
10:45 Wolkig3 21.4 °C 63 %
14.1 °C
1010.8 hPa 7.9 km/h
2 Bft
25.9 km/h
4 Bft
SSW -
0.0 mm/h
2.6 245 cm
11:00 Wolkig3 21.7 °C 62 %
14.1 °C
1010.9 hPa 13.0 km/h
3 Bft
27.4 km/h
4 Bft
S 0.00 mm
0.0 mm/h
4.5 245 cm
11:15 Wolkig3 22.1 °C 60 %
14.0 °C
1011.1 hPa 10.7 km/h
2 Bft
30.6 km/h
5 Bft
SSW -
0.0 mm/h
5.0 245 cm
11:30 Wolkig3 21.7 °C 60 %
13.6 °C
1011.3 hPa 11.2 km/h
2 Bft
32.0 km/h
5 Bft
SW -
0.0 mm/h
1.6 246 cm
11:45 Wolkig3 21.8 °C 59 %
13.4 °C
1011.3 hPa 9.7 km/h
2 Bft
27.4 km/h
4 Bft
NW -
0.0 mm/h
3.1 245 cm
12:00 Wolkig3 22.4 °C 56 %
13.2 °C
1011.3 hPa 14.4 km/h
3 Bft
25.9 km/h
4 Bft
W 0.00 mm
0.0 mm/h
6.3 246 cm
12:15 Wolkig3 22.7 °C 52 %
12.3 °C
1011.5 hPa 16.2 km/h
3 Bft
37.1 km/h
5 Bft
SW -
0.0 mm/h
6.2 246 cm
12:30 Stark bewölkt3 22.8 °C 52 %
12.4 °C
1011.3 hPa 16.2 km/h
3 Bft
35.3 km/h
5 Bft
S -
0.0 mm/h
6.4 246 cm
12:45 Stark bewölkt3 22.6 °C 53 %
12.5 °C
1011.4 hPa 16.2 km/h
3 Bft
27.4 km/h
4 Bft
SSW -
0.0 mm/h
6.3 246 cm
13:00 Stark bewölkt3 22.7 °C 54 %
12.9 °C
1011.5 hPa 14.4 km/h
3 Bft
33.8 km/h
5 Bft
SW 0.00 mm
0.0 mm/h
3.3 246 cm
13:15 Stark bewölkt3 22.8 °C 55 %
13.3 °C
1011.4 hPa 9.7 km/h
2 Bft
22.7 km/h
4 Bft
W -
0.0 mm/h
3.3 246 cm
13:30 Stark bewölkt3 22.8 °C 55 %
13.3 °C
1011.5 hPa 9.7 km/h
2 Bft
24.1 km/h
4 Bft
WSW -
0.0 mm/h
5.0 246 cm
13:45 Stark bewölkt3 22.8 °C 55 %
13.3 °C
1011.3 hPa 11.2 km/h
2 Bft
32.0 km/h
5 Bft
SW -
0.0 mm/h
5.3 245 cm
14:00 Wolkig3 22.8 °C 56 %
13.6 °C
1011.4 hPa 10.7 km/h
2 Bft
25.9 km/h
4 Bft
SW 0.00 mm
0.0 mm/h
4.2 246 cm
14:15 Stark bewölkt3 22.7 °C 56 %
13.5 °C
1011.4 hPa 7.9 km/h
2 Bft
19.4 km/h
3 Bft
SSW -
0.0 mm/h
3.1 246 cm
14:30 Stark bewölkt3 23.1 °C 55 %
13.6 °C
1011.4 hPa 13.0 km/h
3 Bft
25.9 km/h
4 Bft
SW -
0.0 mm/h
4.3 246 cm
14:45 Wolkig3 23.6 °C 53 %
13.4 °C
1011.5 hPa 14.1 km/h
3 Bft
25.9 km/h
4 Bft
SSW -
0.0 mm/h
6.2 246 cm
15:00 Wolkig3 23.4 °C 53 %
13.3 °C
1011.6 hPa 12.5 km/h
3 Bft
27.4 km/h
4 Bft
SSO 0.00 mm
0.0 mm/h
3.0 246 cm
15:15 Wolkig3 23.7 °C 52 %
13.2 °C
1011.8 hPa 9.7 km/h
2 Bft
28.8 km/h
5 Bft
S -
0.0 mm/h
3.1 247 cm
15:30 Wolkig3 23.8 °C 51 %
13.0 °C
1011.8 hPa 13.0 km/h
3 Bft
30.6 km/h
5 Bft
SW -
0.0 mm/h
5.4 247 cm
15:45 Wolkig3 24.4 °C 48 %
12.7 °C
1011.8 hPa 14.4 km/h
3 Bft
30.6 km/h
5 Bft
SW -
0.0 mm/h
5.3 246 cm
16:00 Wolkig3 24.3 °C 47 %
12.3 °C
1011.9 hPa 16.2 km/h
3 Bft
33.8 km/h
5 Bft
NW 0.00 mm
0.0 mm/h
4.9 246 cm
16:15 Wolkig3 24.1 °C 48 %
12.4 °C
1012.0 hPa 14.4 km/h
3 Bft
27.4 km/h
4 Bft
W -
0.0 mm/h
4.0 246 cm
16:30 Wolkig3 24.3 °C 48 %
12.6 °C
1012.1 hPa 13.0 km/h
3 Bft
25.9 km/h
4 Bft
SW -
0.0 mm/h
4.1 246 cm
16:45 Leicht bewölkt3 24.1 °C 46 %
11.7 °C
1012.2 hPa 16.2 km/h
3 Bft
28.8 km/h
5 Bft
SW -
0.0 mm/h
3.7 247 cm
17:00 Wolkig3 24.5 °C 46 %
12.1 °C
1012.2 hPa 16.7 km/h
3 Bft
30.6 km/h
5 Bft
S 0.00 mm
0.0 mm/h
3.5 246 cm
17:15 Wolkig3 24.2 °C 46 %
11.8 °C
1012.3 hPa 13.0 km/h
3 Bft
30.6 km/h
5 Bft
W -
0.0 mm/h
3.1 247 cm
17:30 Wolkig3 24.4 °C 46 %
12.0 °C
1012.4 hPa 14.4 km/h
3 Bft
30.6 km/h
5 Bft
WSW -
0.0 mm/h
2.6 246 cm
17:45 Leicht bewölkt3 24.6 °C 46 %
12.2 °C
1012.4 hPa 14.4 km/h
3 Bft
27.4 km/h
4 Bft
SW -
0.0 mm/h
2.5 246 cm
18:00 Leicht bewölkt3 24.9 °C 43 %
11.4 °C
1012.3 hPa 13.0 km/h
3 Bft
30.6 km/h
5 Bft
SW 0.00 mm
0.0 mm/h
2.4 246 cm
18:15 Wolkig3 24.2 °C 45 %
11.5 °C
1012.4 hPa 14.4 km/h
3 Bft
28.8 km/h
5 Bft
SW -
0.0 mm/h
1.5 246 cm
18:30 Leicht bewölkt3 24.6 °C 44 %
11.5 °C
1012.5 hPa 13.9 km/h
3 Bft
27.4 km/h
4 Bft
WSW -
0.0 mm/h
1.5 246 cm
18:45 Leicht bewölkt3 24.6 °C 44 %
11.5 °C
1012.4 hPa 14.4 km/h
3 Bft
30.6 km/h
5 Bft
S -
0.0 mm/h
1.3 246 cm
19:00 Leicht bewölkt3 24.4 °C 43 %
11.0 °C
1012.5 hPa 14.4 km/h
3 Bft
28.8 km/h
5 Bft
S 0.00 mm
0.0 mm/h
1.2 247 cm
19:15 Leicht bewölkt3 24.2 °C 44 %
11.2 °C
1012.6 hPa 14.4 km/h
3 Bft
28.8 km/h
5 Bft
SSW -
0.0 mm/h
1.0 246 cm
19:30 Leicht bewölkt3 24.3 °C 44 %
11.3 °C
1012.6 hPa 11.2 km/h
2 Bft
27.4 km/h
4 Bft
S -
0.0 mm/h
0.8 245 cm
19:45 Leicht bewölkt3 24.0 °C 44 %
11.0 °C
1012.8 hPa 12.4 km/h
3 Bft
32.0 km/h
5 Bft
SSW -
0.0 mm/h
0.5 246 cm
20:00 Sonnig2 23.8 °C 46 %
11.5 °C
1012.8 hPa 9.7 km/h
2 Bft
22.7 km/h
4 Bft
SSW 0.00 mm
0.0 mm/h
0.0 246 cm
20:15 Sonnig2 23.7 °C 46 %
11.4 °C
1013.0 hPa 7.9 km/h
2 Bft
19.4 km/h
3 Bft
S -
0.0 mm/h
0.0 247 cm
20:30 Sonnig2 23.4 °C 46 %
11.1 °C
1013.1 hPa 7.9 km/h
2 Bft
19.4 km/h
3 Bft
SW -
0.0 mm/h
0.0 247 cm
20:45 Sonnig2 23.2 °C 46 %
10.9 °C
1013.3 hPa 7.9 km/h
2 Bft
16.2 km/h
3 Bft
SSW -
0.0 mm/h
0.0 246 cm
21:00 Sonnig2 22.8 °C 47 %
10.9 °C
1013.5 hPa 7.9 km/h
2 Bft
20.9 km/h
4 Bft
SSO 0.00 mm
0.0 mm/h
0.0 246 cm
21:15 Wolkenlos2 22.4 °C 48 %
10.8 °C
1013.6 hPa 6.5 km/h
2 Bft
17.6 km/h
3 Bft
SSW -
0.0 mm/h
0.0 246 cm
21:30 Wolkenlos2 22.1 °C 50 %
11.2 °C
1013.6 hPa 3.8 km/h
1 Bft
11.2 km/h
2 Bft
SSW -
0.0 mm/h
0.0 246 cm
21:45 Wolkenlos2 21.8 °C 52 %
11.5 °C
1013.8 hPa 4.7 km/h
1 Bft
11.2 km/h
2 Bft
SSW -
0.0 mm/h
0.0 246 cm
22:00 Wolkenlos2 21.6 °C 54 %
11.9 °C
1013.8 hPa 6.5 km/h
2 Bft
13.0 km/h
3 Bft
S 0.00 mm
0.0 mm/h
0.0 246 cm
22:15 Wolkenlos2 21.4 °C 55 %
12.0 °C
1013.9 hPa 6.5 km/h
2 Bft
14.4 km/h
3 Bft
SSW -
0.0 mm/h
0.0 246 cm
22:30 Wolkenlos2 21.3 °C 55 %
11.9 °C
1013.8 hPa 6.5 km/h
2 Bft
14.4 km/h
3 Bft
S -
0.0 mm/h
0.0 247 cm
22:45 Wolkenlos2 21.2 °C 55 %
11.8 °C
1014.0 hPa 6.5 km/h
2 Bft
14.4 km/h
3 Bft
SSW -
0.0 mm/h
0.0 246 cm
23:00 Wolkenlos2 21.1 °C 56 %
12.0 °C
1014.1 hPa 5.9 km/h
2 Bft
13.0 km/h
3 Bft
SSW 0.00 mm
0.0 mm/h
0.0 246 cm
23:15 Wolkenlos2 20.8 °C 57 %
12.0 °C
1014.1 hPa 4.7 km/h
1 Bft
19.4 km/h
3 Bft
SSW -
0.0 mm/h
0.0 245 cm
23:30 Wolkenlos2 20.4 °C 58 %
11.9 °C
1014.2 hPa 3.7 km/h
1 Bft
13.0 km/h
3 Bft
S -
0.0 mm/h
0.0 246 cm
23:45 Wolkenlos2 20.2 °C 59 %
11.9 °C
1014.1 hPa 3.2 km/h
1 Bft
11.2 km/h
2 Bft
SSW -
0.0 mm/h
0.0 245 cm
00:00 Wolkenlos2 20.1 °C 59 %
11.8 °C
1014.1 hPa 4.7 km/h
1 Bft
13.0 km/h
3 Bft
SSW 0.00 mm
0.0 mm/h
0.0 245 cm
Datenbasis Wetterzustand: ¹ Wetterstation Köln-Nippes (Stellwerk), ² powered by , ³ powered by OpenWeatherMap, CC BY-SA 4.0; Warnlage: DWD, Pegelonline, LANUV; Pegel Köln: Pegelonline
 
Extrem- und Durchschnittswerte
  Temperatur Luftfeuchte Luftdruck Wind Windböen Wind-
richtung
Regen UV-Index Pegel Köln KKT
Min

Max

Ø
18.1 °C
05:25 Uhr
25.0 °C
17:55 Uhr
21.4 °C
43.0 %
17:55 Uhr
94.0 %
00:00 Uhr
64.7 %
1007.2 hPa
02:24 Uhr
1014.2 hPa
23:26 Uhr
1010.7 hPa
 
 
17.6 km/h
12:15 Uhr
8.3 km/h
 
 
37.1 km/h
12:13 Uhr
 
 
 
SSW
 
 
 
 
0.00 mm
 
 
 
 
6.5
12:18 Uhr
 
238 cm
00:15 Uhr
247 cm
15:15 Uhr
 
ST
  Taupunkt   Wind Windböen   Regenrate Ozon Sonne Mond
Min

Max

Ø
10.8 °C
20:45 Uhr
18.9 °C
00:00 Uhr
14.0 °C
   
 
3 Bft
12:15 Uhr
8.3 km/h
 
 
5 Bft
12:13 Uhr
 
   
 
0.0 mm/h
00:00 Uhr
 
 
Chorweiler
86 μg/m³
19:00 Uhr
 
▲ 06:11 Uhr
▼ 21:04 Uhr
▼ 01:28 Uhr
▲ 17:42 Uhr
KKT = Klimatologischer Kenntag: ET = Eistag, FT = Frosttag, KT = Kalter Tag, ST = Sommertag, HT = Hitzetag, TN = Tropennacht, NT = Niederschlagstag, SH = Schneehöhe (Max Tag); Datenbasis Ozon: LANUV, Land NRW, dl-de/by-2-0
Für dieses Datum steht leider (noch) kein Tagesrückblick zur Verfügung.
 
Tagesgrafik
Grafik zum Vergrößern anklicken
 
Detaillierte Warnlage
SCHWERES GEWITTER
09.08.19, 17:00 Uhr bis 10.08.19, 02:00 Uhr
VORABINFORMATION: Ab dem Nachmittag ziehen von Westen und Südwesten her teils kräftige Gewitter auf. Damit einhergehend steigt das Unwetterpotenzial deutlich an. Mögliche Begleiterscheinungen sind heftiger Starkregen zwischen 25 und 40 l/qm in kurzer Zeit, lokal können auch um 50 l/qm in wenigen Stunden fallen. Zudem sind Sturmböen und schwere Sturmböen bis rund 100 km/h sowie größerer Hagel zwischen 2 und 4 cm möglich. Die Gewitter schließen sich am Abend und der Nacht immer mehr zu größeren Komplexen zusammen und verlagern sich in der zweiten Nachthälfte ostwärts. Bei dieser Vorabinfo handelt es sich um eine Abschätzung des möglichen Gefahrenpotenzials. Konkrete Warnungen werden zeitnah und gesondert ausgegeben. Dies ist ein Hinweis auf eine Wetterlage mit hohem Unwetterpotential. Er soll die rechtzeitige Vorbereitung von Schutzmaßnahmen ermöglichen. Gewitter mit den genannten Begleiterscheinungen treten typischerweise sehr lokal auf und treffen mit voller Intensität meist nur wenige Orte. Genauere Angaben zu Ort, Gebiet und Zeitpunkt des Ereignisses können erst mit der Ausgabe der amtlichen Warnungen erfolgen. Bitte verfolgen Sie die weiteren Wettervorhersagen mit besonderer Aufmerksamkeit.
WINDBÖEN
10.08.19, 08:00 Uhr bis 20:00 Uhr
Es treten Windböen mit Geschwindigkeiten bis 60 km/h (17m/s, 33kn, Bft 7) aus südwestlicher Richtung auf. In exponierten Lagen muss mit Sturmböen um 70 km/h (20m/s, 38kn, Bft 8) gerechnet werden.














10.08.19

10.08.19

10.08.19

10.08.19

10.08.19

10.08.19

10.08.19
Datenbasis: DWD, Pegelonline, LANUV


Zurück zur Eingabemaske